Waukegan, IL

10:41 PM CST on February 21, 2017 (GMT -0600)
Waukegan Regional

Weather History for KUGN - June, 2013

Change the Weather History Date:

Monday, June 3, 2013

  Actual Average Record
Temperature  
Mean Temperature 53 °F -  
Max Temperature 65 °F 72 °F 80 °F (2012)
Min Temperature 40 °F 50 °F 37 °F (2009)
Degree Days  
Heating Degree Days 12 6  
Month to date heating degree days 26 18  
Since 1 June heating degree days 26 18  
Since 1 July heating degree days 6614 6769  
Cooling Degree Days 0 2  
Month to date cooling degree days 5 4  
Year to date cooling degree days 52 29  
Since 1 June cooling degree days 5 4  
Growing Degree Days 2 (Base 50)    
Moisture  
Dew Point 43 °F    
Average Humidity 73    
Maximum Humidity 100    
Minimum Humidity 46    
Precipitation  
Precipitation 0.00 in 0.16 in 0.85 in (2002)
Month to date precipitation 0.20 0.49  
Year to date precipitation 14.06 13.35  
Sea Level Pressure  
Sea Level Pressure 30.08 in    
Wind  
Wind Speed 5 mph (SSE)    
Max Wind Speed 14 mph    
Max Gust Speed 16 mph    
Visibility 10 miles    
Events      
T = Trace of Precipitation, MM = Missing Value Source: NWS Daily Summary

Daily Weather History Graph

Daily Weather History Graph

Search for Another Location

Airport or City:

Trip Planner

Search our weather history database for the weather conditions in past years. The results will help you decide how hot, cold, wet, or windy it might be!

Date:

Astronomy

Jun. 03, 2013 Rise Set
Actual Time 5:16 AM CDT 8:23 PM CDT
Civil Twilight 4:41 AM CDT 8:57 PM CDT
Nautical Twilight 3:58 AM CDT 9:41 PM CDT
Astronomical Twilight 3:05 AM CDT 10:34 PM CDT
Moon 2:18 AM CDT (6/3) 3:49 PM CDT (6/3)
Length of Visible Light 16h 15m
Length of Day
15h 07m
Waning Crescent, 22% of the Moon is Illuminated
Jun 3
Waning Crescent
Jun 8
New
Jun 16
First Quarter
Jun 23
Full
Jun 29
Last Quarter

Hourly Weather History & Observations

Time (CDT) Temp. Windchill Dew Point Humidity Pressure Visibility Wind Dir Wind Speed Gust Speed Precip Events Conditions
12:52 AM 41.0 °F - 39.9 °F 96% 30.07 in 6.0 mi Calm Calm - N/A   Clear
1:52 AM 41.0 °F 39.0 °F 39.9 °F 96% 30.07 in 9.0 mi SSW 3.5 mph - N/A   Clear
2:52 AM 41.0 °F - 39.9 °F 96% 30.07 in 10.0 mi Calm Calm - N/A   Clear
3:52 AM 41.0 °F - 41.0 °F 100% 30.08 in 9.0 mi Calm Calm - N/A   Mostly Cloudy
4:52 AM 39.9 °F - 39.0 °F 97% 30.09 in 10.0 mi Calm Calm - N/A   Clear
5:52 AM 42.1 °F - 41.0 °F 96% 30.09 in 10.0 mi Calm Calm - N/A   Clear
6:52 AM 48.0 °F - 44.1 °F 86% 30.09 in 9.0 mi South 3.5 mph - N/A   Clear
7:52 AM 53.1 °F - 46.9 °F 80% 30.10 in 8.0 mi SSE 4.6 mph - N/A   Clear
8:52 AM 55.9 °F - 46.9 °F 72% 30.11 in 9.0 mi SSW 8.1 mph - N/A   Clear
9:52 AM 57.9 °F - 48.0 °F 70% 30.12 in 10.0 mi Variable 4.6 mph - N/A   Clear
10:52 AM 62.1 °F - 46.9 °F 58% 30.10 in 10.0 mi South 6.9 mph - N/A   Clear
11:52 AM 62.1 °F - 42.1 °F 48% 30.09 in 10.0 mi Calm Calm - N/A   Clear
12:52 PM 63.0 °F - 45.0 °F 52% 30.08 in 10.0 mi ESE 9.2 mph - N/A   Mostly Cloudy
1:52 PM 63.0 °F - 44.1 °F 50% 30.06 in 10.0 mi East 10.4 mph - N/A   Clear
2:52 PM 64.0 °F - 44.1 °F 48% 30.06 in 10.0 mi SE 9.2 mph - N/A   Clear
3:52 PM 63.0 °F - 41.0 °F 45% 30.05 in 10.0 mi ESE 12.7 mph - N/A   Clear
4:52 PM 61.0 °F - 42.1 °F 50% 30.05 in 10.0 mi SSE 10.4 mph - N/A   Clear
5:52 PM 61.0 °F - 41.0 °F 48% 30.05 in 10.0 mi ESE 11.5 mph - N/A   Clear
6:52 PM 59.0 °F - 42.1 °F 53% 30.06 in 10.0 mi SE 9.2 mph - N/A   Clear
7:52 PM 55.9 °F - 42.1 °F 60% 30.06 in 10.0 mi SE 5.8 mph - N/A   Clear
8:52 PM 54.0 °F - 42.1 °F 64% 30.08 in 10.0 mi SE 4.6 mph - N/A   Clear
9:52 PM 54.0 °F - 42.1 °F 64% 30.08 in 10.0 mi SSE 5.8 mph - N/A   Clear
10:52 PM 48.9 °F - 43.0 °F 80% 30.09 in 10.0 mi Calm Calm - N/A   Clear
11:52 PM 50.0 °F - 39.9 °F 68% 30.09 in 10.0 mi SW 3.5 mph - N/A   Clear